User: anonymous   Login
Location: Oshawa
(43.9000°N, 78.8670°W)
Time: 07:39:42
(UTC-05:00)
Language:

Iridium 54 - Orbit

View from above orbital plane
View from above orbital plane
View from above satellite
View from above satellite

Ground track
Ground track

The orbit data is extracted from the following two-line orbital elements,

1 25171U 98010C   16044.52209290  .00000187  00000-0  59548-4 0  9999
2 25171  86.3987 195.0469 0001996  93.2346 266.9078 14.34220841941747
Epoch (UTC): 13 February 2016 12:31:48
Eccentricity: 0.0001996
inclination: 86.3987°
perigee height: 776 km
apogee height: 779 km
right ascension of ascending node: 195.0469°
argument of perigee: 93.2346°
revolutions per day: 14.34220841
mean anomaly at epoch: 266.9078°
orbit number at epoch: 94174

The dashed part of the orbit path shows where the satellite is in the earth's shadow,  

DLR